User: anonymous   Login
Location: Bluff Heights
(33.7692°N, 118.1592°W)
Time: 02:43:23
(UTC+00:00)
Language:

Altair - Orbit

View from above orbital plane
View from above orbital plane
View from above satellite
View from above satellite

Ground track
Ground track

The orbit data is extracted from the following two-line orbital elements,

1 00050U 60009B   21217.41354203 -.00000081  00000-0  49863-4 0  9999
2 00050  47.2303 276.4783 0113311 119.7176 241.4945 12.20116163720769
Epoch (UTC): 05 August 2021 09:55:30
Eccentricity: 0.0113311
inclination: 47.2303°
perigee height: 1502 km
apogee height: 1682 km
right ascension of ascending node: 276.4783°
argument of perigee: 119.7176°
revolutions per day: 12.20116163
mean anomaly at epoch: 241.4945°
orbit number at epoch: 72076

The dashed part of the orbit path shows where the satellite is in the earth's shadow,  

DLR